Regional Weather Roundup
Issued by NWS Albany, NY

Home | Current Version | Previous Version | Text Only | Print | Product List | Glossary On
Versions: 1 2 3 4 5 6 7 8 9 10 11 12 13 14 15 16 17 18 19 20 21 22 23 24 25 26 27 28 29 30 31 32 33 34 35 36 37 38 39 40 41 42 43 44 45 46 47 48 49 50
000
ASUS41 KALY 222010
RWRALY

NEW YORK STATE HOURLY WEATHER ROUNDUP
NATIONAL WEATHER SERVICE ALBANY NY
300 PM EST WED NOV 22 2017

NOTE: "FAIR" INDICATES FEW OR NO CLOUDS BELOW 12,000 FEET WITH NO
SIGNIFICANT WEATHER AND/OR NO OBSTRUCTIONS TO VISIBILITY.

NYZ032-033-038>043-046>054-057>066-NYZ062>081-082-084-222100-
EAST


CITY           SKY/WX    TMP DP  RH WIND       PRES   REMARKS
ALBANY         CLOUDY    42  29  59 NW14G25   29.97R
GLENS FALLS    CLOUDY    41  32  70 N7        29.95R
POUGHKEEPSIE   CLOUDY    45  29  53 NW15G22   29.93R
NEWBURGH       PTSUNNY   46  32  57 N16       29.94R
MONTGOMERY     MOSUNNY   43  29  57 N15G21    29.95R
WHITE PLAINS   PTSUNNY   46  36  68 NW17G26   29.89R
ISLIP          CLOUDY    48  40  73 N17G29    29.86R
NEW YORK CITY  CLOUDY    51  36  56 NW20G28   29.89R
CENTRAL PARK   CLOUDY    50  33  52 NW12G22   29.93R
$$

NYZ005>009-017-018-044>046-055-056-222100-
CENTRAL


CITY           SKY/WX    TMP DP  RH WIND       PRES   REMARKS
FULTON         CLOUDY    35  29  78 W13       30.07R WCI  26
SYRACUSE       CLOUDY    34  29  82 W17       30.07R WCI  23
ROME           LGT SNOW  34  32  92 W12       30.05R FOG     WCI  25
ELMIRA         CLOUDY    35  24  64 NW10G21   30.08R WCI  27
BINGHAMTON     FLURRIES  31  24  75 NW13G20   30.01R WCI  21
MONTICELLO     CLOUDY    35  27  72 NW16G25   29.97R WCI  25
$$

NYZ026>034-041>043-087-222100-
NORTH


CITY           SKY/WX    TMP DP  RH WIND       PRES   REMARKS
WATERTOWN      CLOUDY    33  29  85 N10       30.07R WCI  25
FORT DRUM      NOT AVBL
OGDENSBURG     CLOUDY    30  25  80 NW12      30.07R WCI  21
MASSENA        CLOUDY    31  26  82 W14G20    30.07R WCI  21
SARANAC LAKE   FLURRIES  30  29  96 NW7       29.92R WCI  23
PLATTSBURGH    CLOUDY    39  29  67 NW6       29.97R WCI  35
$$

NYZ001>004-010>016-019>021-085-222100-
WEST


CITY           SKY/WX    TMP DP  RH WIND       PRES   REMARKS
NIAGARA FALLS  CLOUDY    33  18  53 W16G22    30.17R WCI  23
BUFFALO        PTSUNNY   31  19  61 W9        30.16R WCI  23
DUNKIRK        CLOUDY    33  20  58 W13       30.18R WCI  24
JAMESTOWN      FLURRIES  27  22  81 NW9       30.12R WCI  18
WELLSVILLE     CLOUDY    30  21  69 NW15G21   30.07R WCI  19
ROCHESTER      CLOUDY    32  23  69 NW13      30.13R WCI  22
PENN YAN       CLOUDY    32  23  69 NW12G20   30.10R WCI  23
$$

             KEY
       WCI = WIND CHILL INDEX
       VSB = VISIBILITY
       HX  = HEAT INDEX
$$



USA.gov is the U.S. government's official web portal to all federal, state and local government web resources and services.